Hourly Weather Roundup
Issued by NWS Central Illinois

Home | Current Version | Previous Version | Text Only | Print | Product List | Glossary On
Versions: 1 2 3 4 5 6 7 8 9 10 11 12 13 14 15 16 17 18 19 20 21 22 23 24 25 26 27 28 29 30 31 32 33 34 35 36 37 38 39 40 41 42 43 44 45 46 47 48 49 50
000
NZUS43 KILX 281310
HWRILX

AREA WEATHER ROUNDUP
NATIONAL WEATHER SERVICE, LINCOLN IL
700 AM CST SUN DEC 28 2014


CITY           SKY/WX    TMP DP  RH WIND       PRES   REMARKS
BLOOMINGTON    CLOUDY    24  20  85 NW13      30.19S WCI  12
CHAMPAIGN      CLOUDY    27  22  81 NW9       30.19R WCI  18
DECATUR        CLOUDY    28  22  78 NW8       30.20S WCI  20
FLORA          CLOUDY    32  28  85 N8        30.20R WCI  25
GALESBURG      MOCLDY    20  18  92 W3        30.20S
JACKSONVILLE   CLOUDY    30  24  78 W9        30.22R WCI  22
LACON          MOCLDY    21  17  83 W3        30.20R
LAWRENCEVILLE  CLOUDY    33  28  81 N9        30.19F WCI  25
LITCHFIELD     CLOUDY    29  24  81 NW9       30.21R WCI  20
$$


CITY           SKY/WX    TMP DP  RH WIND       PRES   REMARKS
LINCOLN        CLOUDY    28  22  80 NW6       30.22S WCI  21
MACOMB         PTCLDY    24  22  91 CALM      30.23S
MATTOON        CLOUDY    28  23  81 N13       30.19R WCI  17
MT CARMEL AP   CLOUDY    34  28  80 N6        30.19R WCI  29
OLNEY-NOBLE AP CLOUDY    32  28  86 N9        30.20R WCI  24
PARIS          CLOUDY    30  27  90 NW5       30.20S WCI  25
PEORIA         MOCLDY    24  18  77 NW6       30.21R WCI  17
PONTIAC        CLOUDY    23  19  85 W9        30.20S WCI  13
RANTOUL        CLOUDY    27  20  75 NW13      30.19R WCI  17
ROBINSON       CLOUDY    32  28  83 N8        30.19F WCI  25
SPRINGFIELD    CLOUDY    29  23  78 N5        30.21R WCI  24
TAYLORVILLE    CLOUDY    28  25  86 NW7       30.21S WCI  21
$$

...REGIONAL REPORTS...


CITY           SKY/WX    TMP DP  RH WIND       PRES   REMARKS
CHICAGO O`HARE PTCLDY    22  18  85 W6        30.14F WCI  14
KANKAKEE       CLOUDY    26  22  85 W9        30.18R WCI  17
MOLINE         PTCLDY    18  14  84 SW5       30.19S WCI  11
MOUNT VERNON   CLOUDY    32  23  69 N5        30.21R WCI  27
PITTSFIELD     CLOUDY    29  23  79 W3        30.23S
QUINCY         MOCLDY    26  21  81 NW5       30.21S WCI  20
ROCKFORD       PTCLDY    19  14  81 W5        30.18S WCI  12
$$


CITY           SKY/WX    TMP DP  RH WIND       PRES   REMARKS
BURLINGTON     MOCLDY    23  20  88 S3        30.20R
CEDAR RAPIDS   CLEAR     13  11  92 SW5       30.15F WCI   5
DES MOINES     PTCLDY    16  11  80 S5        30.16S WCI   9
KIRKSVILLE     MOCLDY    18  17  96 S5        30.20S WCI  11
OTTUMWA        CLEAR     16  12  84 SW3       30.18S
ST LOUIS       CLOUDY    32  23  69 NW7       30.23R WCI  26
$$


CITY           SKY/WX    TMP DP  RH WIND       PRES   REMARKS
TERRE HAUTE    CLOUDY    31  25  78 NW7       30.18S WCI  24
EVANSVILLE     CLOUDY    35  29  78 N6        30.20R WCI  30
INDIANAPOLIS   CLOUDY    30  26  85 NW9       30.14S WCI  22
LAFAYETTE      CLOUDY    28  25  88 NW6       30.16F WCI  22
MADISON        FAIR      18  11  74 W3        30.12S
MILWAUKEE      PTCLDY    23  15  71 W5        30.12S WCI  17
$$





USA.gov is the U.S. government's official web portal to all federal, state and local government web resources and services.